PDT,Max TemperatureF,Mean TemperatureF,Min TemperatureF,Max Dew PointF,MeanDew PointF,Min DewpointF,Max Humidity, Mean Humidity, Min Humidity, Max Sea Level PressureIn, Mean Sea Level PressureIn, Min Sea Level PressureIn, Max VisibilityMiles, Mean VisibilityMiles, Min VisibilityMiles, Max Wind SpeedMPH, Mean Wind SpeedMPH, Max Gust SpeedMPH,PrecipitationIn, CloudCover, Events, WindDirDegrees
2013-4-1,66,57,47,50,48,44,100,74,48,30.17,30.10,30.07,10,9,6,18,8,25,T,7,Rain,287
2013-4-2,70,60,50,51,48,44,96,75,53,30.10,30.05,29.96,10,10,10,13,5,16,0.00,4,,280
2013-4-3,80,59,38,54,44,37,100,63,26,30.10,30.05,29.99,10,5,0,20,4,23,0.00,2,Fog,280
2013-4-4,77,61,45,53,48,38,100,63,25,30.11,30.05,30.01,10,5,0,17,5,21,0.00,1,Fog,289
2013-4-5,70,59,47,52,50,45,100,77,53,30.10,30.07,30.00,10,5,0,15,4,18,0.00,6,Fog,96
2013-4-6,69,61,53,52,50,47,93,73,52,30.06,30.01,29.96,10,9,6,16,4,20,0.00,5,,220
2013-4-7,71,62,53,53,50,47,93,70,47,29.96,29.89,29.82,10,8,4,15,5,18,0.00,5,,229
2013-4-8,56,52,48,51,46,39,96,79,61,29.84,29.77,29.72,10,8,4,21,9,26,0.02,8,Rain,197
2013-4-9,68,54,39,44,37,30,93,60,26,30.01,29.90,29.83,10,10,7,20,6,24,0.00,3,,284
2013-4-10,77,54,30,34,28,19,92,53,14,30.07,30.03,30.01,10,10,10,20,7,25,0.00,0,,273
2013-4-11,77,56,34,49,40,21,76,46,15,29.96,29.85,29.81,10,9,6,15,9,21,0.00,2,,187
2013-4-12,77,64,51,52,49,46,89,65,41,29.90,29.81,29.75,10,8,6,15,6,18,0.00,3,,288
2013-4-13,71,61,51,53,51,49,100,79,57,29.91,29.87,29.82,10,5,1,14,4,24,0.00,6,,266
2013-4-14,60,55,50,48,47,45,83,73,62,29.89,29.85,29.82,10,10,7,14,5,16,0.00,8,,215
2013-4-15,58,54,50,52,49,46,96,84,72,29.92,29.88,29.84,10,7,2,13,6,17,0.04,8,Rain,210
2013-4-16,58,51,44,45,39,35,93,72,50,30.00,29.92,29.88,10,10,10,16,9,21,T,6,,225
2013-4-17,69,51,32,41,29,17,100,57,14,30.12,30.04,30.01,10,9,6,23,7,29,0.00,1,,309
2013-4-18,76,54,32,27,18,9,78,43,8,30.18,30.14,30.08,10,10,10,18,9,28,0.00,0,,53
2013-4-19,84,59,33,26,19,7,75,41,6,30.14,30.06,29.98,10,10,10,18,6,23,0.00,0,,8
2013-4-20,86,62,37,38,30,19,64,39,13,30.00,29.94,29.89,10,10,10,16,4,20,0.00,0,,284
2013-4-21,83,62,40,51,42,31,79,48,17,29.99,29.96,29.94,10,10,10,14,4,17,0.00,0,,282
2013-4-22,79,59,39,52,46,37,100,64,28,30.00,29.96,29.90,10,5,0,17,5,22,0.00,3,Fog,285
2013-4-23,78,64,50,51,48,44,89,63,36,29.96,29.91,29.84,10,8,5,14,4,18,0.00,3,,277
2013-4-24,61,56,51,52,50,46,93,81,69,29.98,29.94,29.87,9,6,2,14,3,17,T,8,Rain,285
2013-4-25,70,61,52,50,47,43,96,70,44,30.11,30.02,29.95,10,10,8,15,3,21,0.00,5,,286
2013-4-26,77,59,40,50,45,37,93,66,38,30.14,30.12,30.09,10,10,6,15,5,21,0.00,0,,282
2013-4-27,81,60,39,54,47,36,89,61,32,30.14,30.07,30.00,10,10,10,13,4,17,0.00,0,,299
2013-4-28,85,65,44,54,49,44,100,66,32,30.03,29.95,29.86,10,6,0,13,4,21,0.00,1,Fog,291
2013-4-29,82,66,50,54,51,48,100,67,34,29.92,29.86,29.78,10,5,0,13,5,26,0.00,3,Fog,293
2013-4-30,73,63,53,52,51,49,93,70,47,29.88,29.83,29.81,10,8,5,14,5,25,0.00,5,,250